Regional Weather Roundup
Issued by NWS

Home | Current Version | Previous Version | Graphics & Text | Print | Product List | Glossary On
Versions: 1 2 3 4 5 6 7 8 9 10 11 12 13 14 15 16 17 18 19 20 21 22 23 24 25 26 27 28 29 30 31 32 33 34 35 36 37 38 39 40 41 42 43 44 45 46 47 48 49 50
000
ASUS43 KFSD 250310
RWRSD

WEATHER ROUNDUP FOR SOUTH DAKOTA
NATIONAL WEATHER SERVICE SIOUX FALLS SD
900 PM CST SAT FEB 24 2018

NOTE: "FAIR" INDICATES FEW OR NO CLOUDS BELOW 12,000 FEET WITH NO
SIGNIFICANT WEATHER AND/OR OBSTRUCTIONS TO VISIBILITY.


SDZ001>005-009-010-012>017-250400-
NORTHWEST AND NORTH CENTRAL SOUTH DAKOTA

CITY           SKY/WX    TMP DP  RH WIND       PRES   REMARKS
BUFFALO          N/A     16   7  67 W14       29.56F WCI   2
FAITH            N/A     17  11  77 W17       29.65F WCI   1
MOBRIDGE       CLEAR      9   4  80 NW7       29.60F WCI  -2
$$

SDZ012>016-024>037-041>051-057-063-072>074-250400-
SOUTHWEST AND SOUTH CENTRAL SOUTH DAKOTA

CITY           SKY/WX    TMP DP  RH WIND       PRES   REMARKS
RAPID CTY ARPT CLEAR     13   7  77 CALM      29.70F
PIERRE         CLEAR     15   9  76 W15       29.68F WCI   0
CUSTER         CLEAR     15   1  53 W12       29.62S WCI   2
ELLSWORTH AFB  CLEAR     14   8  77 W8        29.68F WCI   3
PHILIP         CLEAR     14   8  77 W6        29.73R WCI   5
PINE RIDGE     CLEAR     18  11  74 CALM      29.75R
SPEARFISH        N/A     25   7  46 W17       29.66S WCI  11
WINNER         FAIR      19   9  65 W16       29.72S WCI   4
$$

SDZ004>011-016>023-039-040-250400-
NORTHEAST SOUTH DAKOTA

CITY           SKY/WX    TMP DP  RH WIND       PRES   REMARKS
ABERDEEN       LGT SNOW  14  13  95 W6        29.64F FOG     WCI   5
WATERTOWN      CLOUDY    14  13  95 W9        29.57S WCI   2
BROOKINGS      FLURRIES  15  12  88 W17       29.60S WCI  -1
SISSETON         N/A     15  12  88 NW12      29.60F WCI   2
$$

SDZ017-020-022-023-036>040-048>070-250400-
SOUTHEAST SOUTH DAKOTA

CITY           SKY/WX    TMP DP  RH WIND       PRES   REMARKS
SIOUX FALLS    CLOUDY    15  11  83 W13       29.65S WCI   1
HURON          PTCLDY     7   4  87 W9        29.67S FOG     WCI  -7
CHAMBERLAIN    CLEAR     13  10  87 W13       29.70S WCI  -1
MITCHELL       CLEAR      9   6  88 W12       29.72R WCI  -6
YANKTON        CLEAR     17  12  80 W15       29.73R WCI   2
$$

ABBREVIATIONS USED IN REMARKS
   TC - TEMPERATURE IN CELSIUS
  WCI - WIND CHILL INDEX
   HX - HEAT INDEX
  VSB - VISIBILITY





USA.gov is the U.S. government's official web portal to all federal, state and local government web resources and services.